This is the latest recevied weather packets stored in our database for station/object WX6HNX-4. If no packets are shown the sender has not sent any weather packets the latest 10 day(s).
| Time | Temp. | Humidity | Pressure | Rain* | Wind** | Luminosity | Snow |
|---|---|---|---|---|---|---|---|
| 1777782706 | 25° C | 20% | 1000.9 hPa | 0 mm | - | - | - |
| 1777780606 | 25° C | 19% | 1000.1 hPa | 0 mm | - | - | - |
| 1777780306 | 25.56° C | 19% | 1000 hPa | 0 mm | - | - | - |
| 1777778789 | 24.44° C | 22% | 999.3 hPa | 0 mm | - | - | - |
| 1777774015 | 28.89° C | 17% | 998.6 hPa | 0 mm | - | - | - |
| 1777770716 | 30.56° C | 15% | 998.8 hPa | 0 mm | - | - | - |
| 1777762971 | 31.67° C | 15% | 999.6 hPa | 0 mm | - | - | - |
| 1777760900 | 31.67° C | 15% | 1000.1 hPa | 0 mm | - | - | - |
| 1777752453 | 30.56° C | 16% | 1001.9 hPa | 0 mm | - | - | - |
| 1777747896 | 26.11° C | 41% | 1003.2 hPa | 0 mm | - | - | - |
| 1777743096 | 24.44° C | 43% | 1003.1 hPa | 0 mm | - | - | - |
| 1777740604 | 23.89° C | 43% | 1003.4 hPa | 0 mm | - | - | - |
| 1777735847 | 22.22° C | 44% | 1003.5 hPa | 0 mm | - | - | - |
| 1777735547 | 22.22° C | 45% | 1003.6 hPa | 0 mm | - | - | - |
| 1777735246 | 22.22° C | 46% | 1003.6 hPa | 0 mm | - | - | - |
| 1777734393 | 21.67° C | 47% | 1003.6 hPa | 0 mm | - | - | - |
| 1777733792 | 21.67° C | 46% | 1003.5 hPa | 0 mm | - | - | - |
| 1777733493 | 21.67° C | 47% | 1003.6 hPa | 0 mm | - | - | - |
| 1777732592 | 20.56° C | 48% | 1003.6 hPa | 0 mm | - | - | - |
| 1777731992 | 20.56° C | 46% | 1003.7 hPa | 0 mm | - | - | - |
| 1777730917 | 18.89° C | 49% | 1003.4 hPa | 0 mm | - | - | - |
| 1777730017 | 16.67° C | 56% | 1003.4 hPa | 0 mm | - | - | - |
| 1777729717 | 16.11° C | 57% | 1003.3 hPa | 0 mm | - | - | - |
| 1777728518 | 14.44° C | 62% | 1003.2 hPa | 0 mm | - | - | - |
| 1777727785 | 14.44° C | 59% | 1003.2 hPa | 0 mm | - | - | - |
* Rain latest hour (hover to see other rain measurements)
** Current wind speed in m/s (hover to see current wind gust speed)